Blattenbach Aussen Messungen

Zurück zum Überblick

Zeitpunkt Temperatur Temperatur Kabelsensor Luftfeuchte
25.03.2019 21:02:02 3,7 C 8,9 C 70,0%
25.03.2019 20:55:02 3,6 C 8,9 C 70,0%
25.03.2019 20:48:01 3,6 C 9,0 C 69,0%
25.03.2019 20:41:01 3,9 C 9,0 C 69,0%
25.03.2019 20:34:01 3,9 C 9,1 C 68,0%
25.03.2019 20:27:02 4,1 C 9,2 C 68,0%
25.03.2019 20:20:00 4,2 C 9,1 C 68,0%
25.03.2019 20:13:04 4,2 C 9,0 C 67,0%
25.03.2019 20:05:59 4,5 C 9,0 C 65,0%
25.03.2019 19:59:01 4,8 C 9,1 C 65,0%
25.03.2019 19:52:01 4,8 C 9,1 C 65,0%
25.03.2019 19:45:01 4,6 C 9,1 C 65,0%
25.03.2019 19:38:02 4,7 C 9,2 C 64,0%
25.03.2019 19:31:02 5,0 C 9,2 C 63,0%
25.03.2019 19:24:01 4,9 C 9,2 C 62,0%
25.03.2019 19:17:01 4,8 C 9,2 C 61,0%
25.03.2019 19:10:01 5,3 C 9,2 C 59,0%
25.03.2019 19:03:02 6,0 C 9,2 C 57,0%
25.03.2019 18:56:02 6,7 C 9,2 C 52,0%
25.03.2019 18:49:04 6,8 C 9,2 C 52,0%
25.03.2019 18:41:59 6,9 C 9,2 C 52,0%
25.03.2019 18:35:02 6,9 C 9,3 C 52,0%
25.03.2019 18:27:58 6,9 C 9,3 C 51,0%
25.03.2019 18:21:02 7,2 C 9,3 C 51,0%
25.03.2019 18:13:59 7,6 C 9,4 C 50,0%
25.03.2019 18:07:01 8,0 C 9,4 C 49,0%
25.03.2019 17:59:59 8,4 C 9,4 C 49,0%
25.03.2019 17:53:03 8,2 C 9,4 C 49,0%
25.03.2019 17:46:00 7,5 C 9,4 C 49,0%
25.03.2019 17:39:02 7,2 C 9,3 C 50,0%
25.03.2019 17:32:04 7,1 C 9,4 C 49,0%
25.03.2019 17:25:03 7,1 C 9,4 C 47,0%
25.03.2019 17:18:00 7,3 C 9,4 C 47,0%
25.03.2019 17:11:02 7,8 C 9,5 C 47,0%
25.03.2019 17:04:00 8,3 C 9,5 C 46,0%
25.03.2019 16:57:00 9,1 C 9,6 C 44,0%
25.03.2019 16:49:59 9,5 C 9,6 C 44,0%
25.03.2019 16:43:01 9,8 C 9,7 C 44,0%
25.03.2019 16:36:00 9,8 C 9,6 C 44,0%
25.03.2019 16:29:02 9,7 C 9,5 C 44,0%
25.03.2019 16:22:00 9,8 C 9,5 C 45,0%
25.03.2019 16:15:02 9,7 C 9,4 C 45,0%
25.03.2019 16:08:03 9,5 C 9,3 C 45,0%
25.03.2019 16:01:03 9,5 C 9,2 C 47,0%
25.03.2019 15:54:02 9,2 C 9,1 C 46,0%
25.03.2019 15:47:02 8,9 C 9,1 C 47,0%
25.03.2019 15:40:04 8,8 C 9,1 C 47,0%
25.03.2019 15:33:01 8,8 C 9,1 C 47,0%
25.03.2019 15:26:03 8,8 C 9,1 C 48,0%
25.03.2019 15:19:03 8,7 C 9,1 C 47,0%